Location: Unspecified
(0.0000°N, 0.0000°E)
Time: 23:12:27
(UTC-04:00)

Hubble Space Telescope - Pass Details

Date: 28 September 2021
Orbit: 535 x 538 km, 28.5° (Epoch: 19 October)

Event Time Altitude Azimuth Distance (km) Brightness Sun altitude
Rises 14:57:15 0° 286° (WNW) 2,663 5.7 -16.7°
Reaches altitude 10° 14:59:38 10° 277° (W) 1,775 4.7 -17.3°
Maximum altitude 15:03:25 35° 210° (SSW) 867 2.1 -18.2°
Enters shadow 15:05:50 19° 154° (SSE) 1,321 2.5 -18.8°
